Weather History for Sedalia, MO

Change the Weather History Date:

Monday, September 23, 2013

  Actual Average Record
Temperature  
Mean Temperature 64 °F 66 °F  
Max Temperature 77 °F 76 °F 95 °F (1937)
Min Temperature 50 °F 56 °F 31 °F (1983)
Degree Days  
Heating Degree Days 1 2  
Month to date heating degree days 12 18  
Since 1 July heating degree days 12 19  
Cooling Degree Days 0 3  
Month to date cooling degree days 196 144  
Year to date cooling degree days 1411 1429  
Growing Degree Days 14 (Base 50)    
Moisture  
Dew Point 52 °F    
Average Humidity 70    
Maximum Humidity 96    
Minimum Humidity 43    
Precipitation  
Precipitation 0.00 in 0.12 in 3.05 in (1986)
Month to date precipitation 2.79 3.23  
Year to date precipitation 32.70 31.17  
Sea Level Pressure  
Sea Level Pressure 29.92 in    
Wind  
Wind Speed 9 mph (SE)    
Max Wind Speed 17 mph    
Max Gust Speed 24 mph    
Visibility 10 miles    
Events      
T = Trace of Precipitation, MM = Missing Value Source: NWS Daily Summary

Daily Weather History Graph

Daily Weather History Graph

Search for Another Location

Airport:

Trip Planner

Search our weather history database for the weather conditions in past years. The results will help you decide how hot, cold, wet, or windy it might be!

Date:

Astronomy

Sep. 23, 2013 Rise Set
Actual Time 7:01 AM CDT 7:07 PM CDT
Civil Twilight 6:35 AM CDT 7:34 PM CDT
Nautical Twilight 6:04 AM CDT 8:05 PM CDT
Astronomical Twilight 5:32 AM CDT 8:36 PM CDT
Moon 9:43 PM CDT (9/23) 11:18 AM CDT (9/23)
Length of Visible Light 12h 59m
Length of Day
12h 06m
Waning Gibbous, 81% of the Moon is Illuminated
Sep 23
Waning Gibbous
Sep 26
Last Quarter
Oct 4
New
Oct 11
First Quarter
Oct 18
Full

Hourly Weather History & Observations

Time (CDT) Temp. Dew Point Humidity Pressure Visibility Wind Dir Wind Speed Gust Speed Precip Events Conditions
12:53 AM 55.9 °F 51.1 °F 84% 29.93 in 10.0 mi SE 4.6 mph - N/A   Clear
1:53 AM 55.0 °F 50.0 °F 83% 29.93 in 10.0 mi ESE 4.6 mph - N/A   Clear
2:53 AM 54.0 °F 50.0 °F 86% 29.93 in 10.0 mi ESE 4.6 mph - N/A   Clear
3:53 AM 53.1 °F 50.0 °F 89% 29.92 in 10.0 mi SE 6.9 mph - N/A   Clear
4:53 AM 52.0 °F 50.0 °F 93% 29.94 in 10.0 mi SSE 4.6 mph - N/A   Clear
5:53 AM 51.1 °F 48.9 °F 92% 29.95 in 10.0 mi SSE 4.6 mph - N/A   Clear
6:53 AM 50.0 °F 48.9 °F 96% 29.96 in 10.0 mi SE 3.5 mph - N/A   Clear
7:53 AM 53.1 °F 51.1 °F 93% 29.97 in 10.0 mi SE 5.8 mph - 0.01 in   Clear
8:53 AM 60.1 °F 54.0 °F 80% 29.97 in 10.0 mi SE 8.1 mph - N/A   Clear
9:53 AM 66.0 °F 55.9 °F 70% 29.97 in 10.0 mi SSE 12.7 mph - N/A   Clear
10:53 AM 70.0 °F 55.0 °F 59% 29.99 in 10.0 mi South 11.5 mph - N/A   Clear
11:53 AM 72.0 °F 54.0 °F 53% 29.97 in 10.0 mi South 11.5 mph - N/A   Clear
12:53 PM 73.0 °F 52.0 °F 48% 29.94 in 10.0 mi ESE 12.7 mph - N/A   Clear
1:53 PM 75.9 °F 53.1 °F 45% 29.91 in 10.0 mi SE 11.5 mph - N/A   Clear
2:53 PM 77.0 °F 54.0 °F 45% 29.89 in 10.0 mi SE 11.5 mph - N/A   Clear
3:53 PM 77.0 °F 53.1 °F 43% 29.88 in 10.0 mi ESE 11.5 mph 20.7 mph N/A   Clear
4:53 PM 75.9 °F 52.0 °F 43% 29.86 in 10.0 mi ESE 13.8 mph - N/A   Clear
5:53 PM 75.0 °F 53.1 °F 46% 29.86 in 10.0 mi ESE 16.1 mph 20.7 mph N/A   Clear
6:53 PM 70.0 °F 53.1 °F 55% 29.86 in 10.0 mi ESE 8.1 mph - N/A   Clear
7:53 PM 64.9 °F 54.0 °F 68% 29.87 in 10.0 mi SE 4.6 mph - N/A   Clear
8:53 PM 64.9 °F 53.1 °F 65% 29.87 in 10.0 mi SE 12.7 mph - N/A   Clear
9:53 PM 61.0 °F 52.0 °F 72% 29.91 in 10.0 mi SSE 5.8 mph - N/A   Clear
10:53 PM 63.0 °F 53.1 °F 70% 29.89 in 10.0 mi SE 9.2 mph - N/A   Clear
11:53 PM 62.1 °F 54.0 °F 75% 29.89 in 10.0 mi SE 8.1 mph - N/A   Clear